sat.trackr.live / text

‹ back to catalog

STARLINK-32909

NORAD 62894 · 2025-024R

PAYLOAD ACTIVE UNKNOWN

§ Identity

Operator
Country
US
Launch date
2025-02-04
Launch site
AFETR
Launch vehicle
Mass (kg)
RCS (m²)

Purposes: comms

External: N2YO · Heavens-Above · Gunter

§ Orbital elements

Epoch: 2026-09-21T18:55:42.847968Z

Period
94.27 min
Inclination
43.0023°
Eccentricity
0.0001676
Mean motion
15.27583243 rev/d
Perigee alt
481.9 km
Apogee alt
484.2 km
Semi-major
6,861.2 km
B*
3.0752e-4
RAAN
298.1699°
Arg perigee
274.3378°
Mean anomaly
85.7282°
Rev number
9,225

§ Raw data

STARLINK-329091 62894U 25024R   26264.78869037  .00008210  00000+0  30752-3 0  99902 62894  43.0023 298.1699 0001676 274.3378  85.7282 15.27583243 92251

JSON: /api/v1/satellites/62894 · /tle

For live sub-satellite position, see the globe view (requires WebGL).

§ Visibility from observer

Set your observer location to see the next 7 days of passes ≥ 10°. The values pass through the URL so the page stays shareable.

No JS? Fill the form by hand. The geolocation button needs JavaScript.